| time (UTC) | temp C | wind direction | speed KPH | gust KPH | rain 1hr cm | rain 24hr cm | rain mn cm | humidity % | barometer mb |
| 20260503050046 | 1 | 270 | 0.0 | 0.0 | 0.00 | 0.00 | 0.00 | 90 | 1019.3 |
| 20260503045101 | 1 | 270 | 0.0 | 0.0 | 0.00 | 0.00 | 0.00 | 89 | 1019.2 |
| 20260503044043 | 1 | 270 | 0.0 | 0.0 | 0.00 | 0.00 | 0.00 | 88 | 1019.2 |
| 20260503042143 | 2 | 270 | 0.0 | 0.0 | 0.00 | 0.00 | 0.00 | 87 | 1019.2 |
| 20260503041145 | 2 | 315 | 0.0 | 0.0 | 0.00 | 0.00 | 0.00 | 89 | 1019.3 |
| 20260503040243 | 1 | 315 | 0.0 | 0.0 | 0.00 | 0.00 | 0.00 | 90 | 1019.2 |
| 20260503035251 | 2 | 315 | 0.0 | 0.0 | 0.00 | 0.00 | 0.00 | 90 | 1019.4 |
| 20260503034348 | 1 | 315 | 0.0 | 0.0 | 0.00 | 0.00 | 0.00 | 87 | 1019.3 |
| 20260503033349 | 1 | 315 | 0.0 | 0.0 | 0.00 | 0.00 | 0.00 | 89 | 1019.3 |
| 20260503032349 | 1 | 315 | 0.0 | 0.0 | 0.00 | 0.00 | 0.00 | 87 | 1019.4 |
| 20260503031348 | 1 | 315 | 0.0 | 0.0 | 0.00 | 0.00 | 0.00 | 85 | 1019.5 |
| 20260503030349 | 1 | 315 | 0.0 | 0.0 | 0.00 | 0.00 | 0.00 | 84 | 1019.7 |
| 20260503025349 | 1 | 315 | 0.0 | 0.0 | 0.00 | 0.00 | 0.00 | 82 | 1019.7 |
| 20260503023348 | 2 | 315 | 0.0 | 0.0 | 0.00 | 0.00 | 0.00 | 77 | 1019.7 |
| 20260503022349 | 2 | 315 | 0.0 | 0.0 | 0.00 | 0.00 | 0.00 | 74 | 1019.7 |
| 20260503021348 | 3 | 315 | 0.0 | 0.0 | 0.00 | 0.00 | 0.00 | 71 | 1019.6 |
| 20260503020447 | 3 | 315 | 0.0 | 0.0 | 0.00 | 0.00 | 0.00 | 68 | 1019.6 |
| 20260503015450 | 4 | 315 | 0.0 | 0.0 | 0.00 | 0.00 | 0.00 | 66 | 1019.6 |
| 20260503014548 | 5 | 315 | 0.0 | 0.0 | 0.00 | 0.00 | 0.00 | 67 | 1019.7 |
| 20260503012551 | 5 | 315 | 0.0 | 0.0 | 0.00 | 0.00 | 0.00 | 64 | 1019.5 |
| 20260503011549 | 5 | 315 | 0.0 | 0.0 | 0.00 | 0.00 | 0.00 | 62 | 1019.5 |
| 20260503010549 | 6 | 315 | 0.0 | 0.0 | 0.00 | 0.00 | 0.00 | 60 | 1019.5 |
| 20260503005648 | 6 | 270 | 0.0 | 0.0 | 0.00 | 0.00 | 0.00 | 59 | 1019.5 |
| 20260503001848 | 6 | 337 | 0.0 | 0.0 | 0.00 | 0.00 | 0.00 | 56 | 1019.3 |
| 20260503000851 | 7 | 72 | 0.0 | 4.8 | 0.00 | 0.00 | 0.00 | 57 | 1019.3 |
| 20260502235906 | 7 | 323 | 0.0 | 0.0 | 0.00 | 0.00 | 0.00 | 56 | 1019.2 |
| 20260502233947 | 7 | 326 | 0.0 | 0.0 | 0.00 | 0.00 | 0.00 | 57 | 1019.2 |
| 20260502232948 | 8 | 315 | 0.0 | 0.0 | 0.00 | 0.00 | 0.00 | 58 | 1019.2 |
| 20260502231949 | 8 | 22 | 0.0 | 0.0 | 0.00 | 0.00 | 0.00 | 57 | 1019.2 |
| 20260502223949 | 9 | 353 | 0.0 | 1.6 | 0.00 | 0.00 | 0.00 | 54 | 1019.2 |
| 20260502221950 | 10 | 290 | 0.0 | 0.0 | 0.00 | 0.00 | 0.00 | 53 | 1019.2 |
| 20260502220948 | 10 | 325 | 0.0 | 0.0 | 0.00 | 0.00 | 0.00 | 53 | 1019.1 |
| 20260502220849 | 10 | 329 | 0.0 | 0.0 | 0.00 | 0.00 | 0.00 | 53 | 1019.1 |
| 20260502215948 | 10 | 318 | 0.0 | 6.4 | 0.00 | 0.00 | 0.00 | 55 | 1019.1 |
| 20260502213948 | 11 | 269 | 0.0 | 1.6 | 0.00 | 0.00 | 0.00 | 55 | 1019.1 |
| 20260502212949 | 11 | 308 | 0.0 | 0.0 | 0.00 | 0.00 | 0.00 | 56 | 1019.1 |
| 20260502211048 | 11 | 309 | 0.0 | 0.0 | 0.00 | 0.00 | 0.00 | 53 | 1019.0 |
| 20260502210048 | 11 | 309 | 0.0 | 3.2 | 0.00 | 0.00 | 0.00 | 56 | 1018.8 |
| 20260502205049 | 11 | 284 | 4.8 | 11.3 | 0.00 | 0.00 | 0.00 | 55 | 1018.8 |
| 20260502203152 | 12 | 254 | 4.8 | 11.3 | 0.00 | 0.00 | 0.00 | 52 | 1018.8 |
| 20260502202247 | 12 | 291 | 0.0 | 0.0 | 0.00 | 0.00 | 0.00 | 55 | 1019.0 |
| 20260502202150 | 11 | 333 | 0.0 | 1.6 | 0.00 | 0.00 | 0.00 | 56 | 1018.9 |
| 20260502200348 | 11 | 314 | 0.0 | 0.0 | 0.00 | 0.00 | 0.00 | 51 | 1019.0 |
| 20260502194403 | 11 | 329 | 0.0 | 3.2 | 0.00 | 0.00 | 0.00 | 54 | 1019.0 |
| 20260502193447 | 12 | 282 | 0.0 | 0.0 | 0.00 | 0.00 | 0.00 | 52 | 1019.2 |
| 20260502192449 | 12 | 278 | 1.6 | 4.8 | 0.00 | 0.00 | 0.00 | 53 | 1019.4 |
| 20260502192350 | 12 | 335 | 1.6 | 4.8 | 0.00 | 0.00 | 0.00 | 53 | 1019.3 |
| 20260502191448 | 12 | 279 | 1.6 | 6.4 | 0.00 | 0.00 | 0.00 | 56 | 1019.4 |
| 20260502184450 | 11 | 336 | 0.0 | 3.2 | 0.00 | 0.00 | 0.00 | 59 | 1019.4 |
| 20260502182549 | 11 | 263 | 3.2 | 8.0 | 0.00 | 0.00 | 0.00 | 54 | 1019.6 |
| 20260502180649 | 11 | 308 | 0.0 | 0.0 | 0.00 | 0.00 | 0.00 | 58 | 1019.7 |
| 20260502163550 | 10 | 9 | 0.0 | 6.4 | 0.00 | 0.00 | 0.00 | 58 | 1019.8 |
| 20260502160551 | 10 | 284 | 3.2 | 6.4 | 0.00 | 0.03 | 0.00 | 57 | 1020.0 |
| 20260502151648 | 11 | 281 | 0.0 | 3.2 | 0.00 | 0.15 | 0.00 | 62 | 1020.0 |
| 20260502150747 | 11 | 316 | 0.0 | 4.8 | 0.00 | 0.15 | 0.00 | 65 | 1020.1 |
| 20260502130749 | 8 | 321 | 0.0 | 0.0 | 0.00 | 0.25 | 0.00 | 85 | 1019.7 |
| 20260502122948 | 5 | 278 | 0.0 | 0.0 | 0.00 | 0.25 | 0.00 | 96 | 1019.3 |
| 20260502121950 | 5 | 331 | 0.0 | 1.6 | 0.00 | 0.25 | 0.00 | 95 | 1019.2 |
| 20260502120948 | 4 | 315 | 0.0 | 0.0 | 0.00 | 0.25 | 0.00 | 95 | 1019.1 |
| 20260502115048 | 3 | 348 | 0.0 | 1.6 | 0.00 | 0.25 | 0.00 | 97 | 1019.0 |
| 20260502114049 | 2 | 316 | 0.0 | 0.0 | 0.00 | 0.25 | 0.00 | 97 | 1018.7 |
| 20260502113049 | 1 | 315 | 0.0 | 0.0 | 0.00 | 0.25 | 0.00 | 95 | 1018.6 |
| 20260502112148 | 1 | 315 | 0.0 | 0.0 | 0.00 | 0.25 | 0.00 | 95 | 1018.5 |
| 20260502111149 | 0 | 270 | 0.0 | 0.0 | 0.00 | 0.25 | 0.00 | 96 | 1018.5 |
| 20260502110205 | 0 | 270 | 0.0 | 0.0 | 0.00 | 0.25 | 0.00 | 95 | 1018.3 |
| 20260502105248 | 0 | 270 | 0.0 | 0.0 | 0.00 | 0.25 | 0.00 | 96 | 1018.1 |
| 20260502104249 | -1 | 270 | 0.0 | 0.0 | 0.00 | 0.25 | 0.00 | 96 | 1018.1 |
| 20260502103248 | -1 | 270 | 0.0 | 0.0 | 0.00 | 0.25 | 0.00 | 95 | 1018.2 |
| 20260502102347 | -1 | 270 | 0.0 | 0.0 | 0.00 | 0.25 | 0.00 | 94 | 1018.2 |
| 20260502101350 | 0 | 270 | 0.0 | 0.0 | 0.00 | 0.25 | 0.00 | 94 | 1018.2 |
| 20260502101248 | 0 | 270 | 0.0 | 0.0 | 0.00 | 0.25 | 0.00 | 95 | 1018.2 |
| 20260502100249 | 0 | 270 | 0.0 | 0.0 | 0.00 | 0.25 | 0.00 | 95 | 1018.1 |
| 20260502090250 | 1 | 270 | 0.0 | 0.0 | 0.00 | 0.25 | 0.00 | 95 | 1018.3 |
| 20260502090150 | 1 | 270 | 0.0 | 0.0 | 0.00 | 0.25 | 0.00 | 94 | 1018.3 |
| 20260502071248 | 1 | 270 | 0.0 | 0.0 | 0.00 | 0.25 | 0.00 | 97 | 1017.9 |
| 20260502065351 | 1 | 270 | 0.0 | 0.0 | 0.00 | 0.25 | 0.00 | 98 | 1018.1 |
| 20260502064447 | 1 | 270 | 0.0 | 0.0 | 0.00 | 0.25 | 0.00 | 97 | 1018.3 |
| 20260502062547 | 1 | 270 | 0.0 | 0.0 | 0.00 | 0.25 | 0.00 | 98 | 1018.3 |
| 20260502060648 | 1 | 270 | 0.0 | 0.0 | 0.00 | 0.25 | 0.00 | 97 | 1018.4 |
| 20260502055649 | 1 | 270 | 0.0 | 0.0 | 0.00 | 0.25 | 0.00 | 96 | 1018.5 |
| 20260502054649 | 1 | 270 | 0.0 | 0.0 | 0.00 | 0.25 | 0.00 | 97 | 1018.5 |
| 20260502053650 | 1 | 270 | 0.0 | 0.0 | 0.00 | 0.25 | 0.00 | 97 | 1018.5 |
| 20260502052649 | 1 | 270 | 0.0 | 0.0 | 0.00 | 0.25 | 0.00 | 97 | 1018.7 |
| 20260502052550 | 1 | 270 | 0.0 | 0.0 | 0.00 | 0.25 | 0.00 | 97 | 1018.7 |
| 20260502051647 | 2 | 270 | 0.0 | 0.0 | 0.00 | 0.25 | 0.00 | 97 | 1018.6 |
| 20260502050649 | 2 | 270 | 0.0 | 0.0 | 0.00 | 0.25 | 0.00 | 96 | 1018.8 |